This is the latest recevied weather packets stored in our database for station/object KC7WRB. If no packets are shown the sender has not sent any weather packets the latest 10 day(s).
| Time | Temp. | Humidity | Pressure | Rain* | Wind** | Luminosity | Snow |
|---|---|---|---|---|---|---|---|
| 1777668454 | 20.56° C | 14% | 1018.6 hPa | 0 mm | - | 880 W/m² | - |
| 1777668151 | 21.11° C | 14% | 1018.9 hPa | 0 mm | - | 912 W/m² | - |
| 1777667847 | 20.56° C | 14% | 1018.9 hPa | 0 mm | - | 931 W/m² | - |
| 1777667545 | 20.56° C | 13% | 1019 hPa | 0 mm | - | 925 W/m² | - |
| 1777667242 | 20.56° C | 16% | 1018.7 hPa | 0 mm | - | 935 W/m² | - |
| 1777666939 | 20.56° C | 16% | 1019.1 hPa | 0 mm | - | 943 W/m² | - |
| 1777666635 | 20.56° C | 15% | 1019.1 hPa | 0 mm | - | 903 W/m² | - |
| 1777666332 | 20.56° C | 14% | 1019.2 hPa | 0 mm | - | 930 W/m² | - |
| 1777666029 | 20° C | 15% | 1019.1 hPa | 0 mm | - | 847 W/m² | - |
| 1777665726 | 20.56° C | 15% | 1019.3 hPa | 0 mm | - | 900 W/m² | - |
| 1777665423 | 20.56° C | 15% | 1019.4 hPa | 0 mm | - | 912 W/m² | - |
| 1777665119 | 20.56° C | 16% | 1019.4 hPa | 0 mm | - | 897 W/m² | - |
| 1777664815 | 20.56° C | 18% | 1019.4 hPa | 0 mm | - | 940 W/m² | - |
| 1777664510 | 20° C | 16% | 1019.4 hPa | 0 mm | - | 909 W/m² | - |
| 1777664208 | 20° C | 20% | 1019.4 hPa | 0 mm | - | 904 W/m² | - |
| 1777663907 | 20° C | 17% | 1019.7 hPa | 0 mm | - | 925 W/m² | - |
| 1777663603 | 20° C | 17% | 1019.3 hPa | 0 mm | - | 908 W/m² | - |
| 1777663301 | 20° C | 18% | 1019.7 hPa | 0 mm | - | 908 W/m² | - |
| 1777662998 | 20° C | 18% | 1019.9 hPa | 0 mm | - | 931 W/m² | - |
| 1777662695 | 19.44° C | 18% | 1020 hPa | 0 mm | - | 915 W/m² | - |
| 1777662391 | 19.44° C | 18% | 1020 hPa | 0 mm | - | 918 W/m² | - |
| 1777662086 | 18.89° C | 18% | 1020.1 hPa | 0 mm | - | 913 W/m² | - |
| 1777661783 | 18.89° C | 19% | 1020.3 hPa | 0 mm | - | 875 W/m² | - |
| 1777661478 | 19.44° C | 18% | 1020.1 hPa | 0 mm | - | 903 W/m² | - |
| 1777661175 | 20.56° C | 18% | 1020.3 hPa | 0 mm | - | 899 W/m² | - |
* Rain latest hour (hover to see other rain measurements)
** Current wind speed in m/s (hover to see current wind gust speed)